Seattle, WA

9:19 PM PST on December 11, 2019 (GMT -0800)
Seattle-Tacoma International

Weather History for KSEA - June, 2019

Change the Weather History Date:

Friday, June 14, 2019

  Actual Average Record
Temperature  
Mean Temperature 62 °F 61 °F  
Max Temperature 70 °F 70 °F 86 °F (1988)
Min Temperature 55 °F 52 °F 43 °F (1955)
Degree Days  
Heating Degree Days 2 5  
Month to date heating degree days 36 81  
Since 1 June heating degree days 36 81  
Since 1 July heating degree days 4044 4634  
Cooling Degree Days 0 1  
Month to date cooling degree days 30 2  
Year to date cooling degree days 51 8  
Since 1 June cooling degree days 30 2  
Growing Degree Days 12 (Base 50)    
Moisture  
Dew Point 49 °F    
Average Humidity 65    
Maximum Humidity 83    
Minimum Humidity 47    
Precipitation  
Precipitation 0.00 in 0.06 in 0.70 in (1946)
Month to date precipitation 0.11 0.86  
Year to date precipitation 14.08 18.30  
Sea Level Pressure  
Sea Level Pressure 30.09 in    
Wind  
Wind Speed 7 mph ()    
Max Wind Speed 13 mph    
Max Gust Speed 17 mph    
Visibility 10.0 miles    
Events      
T = Trace of Precipitation, MM = Missing Value Source: Averaged Metar Reports

Daily Weather History Graph

Daily Weather History Graph

Search for Another Location

Airport or City:

Astronomy

Jun. 14, 2019 Rise Set
Actual Time 5:11 AM PDT 9:07 PM PDT
Civil Twilight 4:31 AM PDT 9:47 PM PDT
Nautical Twilight 3:35 AM PDT 10:43 PM PDT
Astronomical Twilight 2:09 AM PDT 12:10 AM PDT
Moon 6:24 PM PDT (6/14) 3:47 AM PDT (6/14)
Length of Visible Light 17h 16m
Length of Day
15h 55m
Waxing Gibbous, 93% of the Moon is Illuminated
Jun 14
Waxing Gibbous
Jun 17
Full
Jun 25
Last Quarter
Jul 2
New
Jul 9
First Quarter

Hourly Weather History & Observations

Time (PDT) Temp. Dew Point Humidity Pressure Visibility Wind Dir Wind Speed Gust Speed Precip Events Conditions
12:53 AM 57.0 °F 48.0 °F 72% 30.03 in 10.0 mi SSE 4.6 mph - N/A   Overcast
1:32 AM 55.9 °F 48.0 °F 75% 30.01 in 10.0 mi South 8.1 mph - N/A   Mostly Cloudy
1:53 AM 57.0 °F 48.0 °F 72% 30.04 in 10.0 mi SSE 5.8 mph - N/A   Mostly Cloudy
2:53 AM 55.9 °F 48.9 °F 77% 30.04 in 10.0 mi SSW 8.1 mph - N/A   Overcast
3:53 AM 55.9 °F 48.9 °F 77% 30.05 in 10.0 mi SSW 5.8 mph - N/A   Overcast
4:31 AM 55.9 °F 50.0 °F 80% 30.04 in 10.0 mi SW 5.8 mph - N/A   Overcast
4:53 AM 55.0 °F 50.0 °F 83% 30.06 in 10.0 mi SW 5.8 mph - N/A   Overcast
5:53 AM 55.0 °F 50.0 °F 83% 30.07 in 10.0 mi SW 6.9 mph - N/A   Overcast
6:53 AM 55.9 °F 48.9 °F 77% 30.09 in 10.0 mi SW 6.9 mph - N/A   Overcast
7:53 AM 55.9 °F 50.0 °F 80% 30.10 in 10.0 mi SW 8.1 mph - N/A   Overcast
8:53 AM 57.0 °F 48.9 °F 74% 30.11 in 10.0 mi SSW 9.2 mph - N/A   Overcast
9:19 AM 57.9 °F 48.9 °F 72% 30.10 in 10.0 mi South 10.4 mph - N/A   Overcast
9:53 AM 59.0 °F 48.9 °F 69% 30.12 in 10.0 mi SW 9.2 mph - N/A   Overcast
10:53 AM 62.1 °F 48.0 °F 60% 30.12 in 10.0 mi SSW 9.2 mph - N/A   Mostly Cloudy
11:53 AM 63.0 °F 48.9 °F 60% 30.13 in 10.0 mi SSW 9.2 mph - N/A   Mostly Cloudy
12:35 PM 64.0 °F 48.9 °F 58% 30.11 in 10.0 mi Variable 5.8 mph - N/A   Mostly Cloudy
12:48 PM 64.4 °F 48.2 °F 56% 30.11 in 10.0 mi SW 8.1 mph - N/A   Mostly Cloudy
12:53 PM 66.9 °F 50.0 °F 54% 30.13 in 10.0 mi WSW 8.1 mph - N/A   Mostly Cloudy
1:20 PM 66.0 °F 50.0 °F 56% 30.11 in 10.0 mi SSW 11.5 mph - N/A   Mostly Cloudy
1:50 PM 66.2 °F 48.2 °F 52% 30.11 in 10.0 mi Variable 5.8 mph - N/A   Mostly Cloudy
1:53 PM 66.0 °F 48.9 °F 54% 30.12 in 10.0 mi SW 9.2 mph - N/A   Mostly Cloudy
2:31 PM 68.0 °F 48.9 °F 50% 30.10 in 10.0 mi WSW 10.4 mph - N/A   Mostly Cloudy
2:53 PM 68.0 °F 48.9 °F 50% 30.12 in 10.0 mi SSW 9.2 mph - N/A   Mostly Cloudy
3:53 PM 68.0 °F 48.9 °F 50% 30.11 in 10.0 mi WSW 9.2 mph - N/A   Mostly Cloudy
4:53 PM 68.0 °F 48.9 °F 50% 30.09 in 10.0 mi Variable 6.9 mph - N/A   Mostly Cloudy
5:53 PM 69.1 °F 48.9 °F 49% 30.09 in 10.0 mi West 5.8 mph - N/A   Scattered Clouds
6:53 PM 68.0 °F 50.0 °F 52% 30.08 in 10.0 mi WSW 8.1 mph - N/A   Scattered Clouds